ONDOSAT-OWL-5

operational
NORAD ID: 62396 Int'l Des: NNA 2024-247 Owner: ONDO Country: MN
LEOCIRCULAR

About ONDOSAT-OWL-5

Description loading...

Live Position

Loading 3D Globe...

Upcoming Passes

Altitude History

Altitude vs Time

uPlot chart will show altitude changes over time

Two-Line Element Set

1 62396U 24247V 26063.53107864 .00049413 00000-0 10614-2 0 9991
2 62396 44.9940 119.3000 0009062 344.5858 15.4754 15.43958019 67257
Epoch: Mar 4, 2026 • Age: 22 hours

Current Status

Altitude 448.1 km
Velocity 7.64 km/s
Sub-Earth Point -42.34°S, 124.36°W
Launch Date Dec 21, 2024
Age 1.1 years
Type other

Technical Details

Classification Payload
Mass 0.25 kg
Dry Mass 0.25 kg
Total Mass 0.25 kg
Length 0.05 m
Diameter 0.05 m
Span 0.05 m
Shape Box
Manufacturer ONDO
Bus Type Cubesat 0.5U
Phase Status In Orbit
Owner/State ONDO/MN

Large Constellations

Loading constellations...